Freeland, MI

3:57 AM EST on December 04, 2016 (GMT -0500)
MBS International

Weather History for KMBS - February, 2013

Change the Weather History Date:

Friday, February 22, 2013

  Actual Average Record
Temperature  
Mean Temperature 26 °F 26 °F  
Max Temperature 33 °F 34 °F 45 °F (1998)
Min Temperature 21 °F 19 °F -2 °F (2015)
Degree Days  
Heating Degree Days 40    
Month to date heating degree days  
Since 1 July heating degree days  
Cooling Degree Days 0    
Month to date cooling degree days  
Year to date cooling degree days  
Moisture  
Dew Point 22 °F    
Average Humidity 86    
Maximum Humidity 93    
Minimum Humidity 75    
Precipitation  
Precipitation 0.08 in 0.07 in 0.08 in (2013)
Month to date precipitation 1.18  
Year to date precipitation 2.89  
Snow  
Snow 0.00 in - - ()
Month to date snowfall  
Since 1 July snowfall  
Snow Depth -    
Sea Level Pressure  
Sea Level Pressure 29.99 in    
Wind  
Wind Speed 12 mph (ESE)    
Max Wind Speed 18 mph    
Max Gust Speed 25 mph    
Visibility 4 miles    
Events Fog , Snow    
T = Trace of Precipitation, MM = Missing Value Source: NWS Daily Summary

Daily Weather History Graph

Daily Weather History Graph

Search for Another Location

Airport or City:

Trip Planner

Search our weather history database for the weather conditions in past years. The results will help you decide how hot, cold, wet, or windy it might be!

Date:

Astronomy

Feb. 22, 2013 Rise Set
Actual Time 7:23 AM EST 6:16 PM EST
Civil Twilight 6:54 AM EST 6:45 PM EST
Nautical Twilight 6:21 AM EST 7:18 PM EST
Astronomical Twilight 5:48 AM EST 7:51 PM EST
Moon 3:23 PM EST (2/22) 5:12 AM EST (2/22)
Length of Visible Light 11h 50m
Length of Day
10h 52m
Waxing Gibbous, 90% of the Moon is Illuminated
Feb 22
Waxing Gibbous
Feb 25
Full
Mar 4
Last Quarter
Mar 11
New
Mar 19
First Quarter

Hourly Weather History & Observations

Time (EST) Temp. Windchill Dew Point Humidity Pressure Visibility Wind Dir Wind Speed Gust Speed Precip Events Conditions
12:53 AM 23.0 °F 10.6 °F 19.9 °F 88% 30.27 in 10.0 mi East 13.8 mph - N/A   Overcast
1:53 AM 24.1 °F 12.5 °F 21.0 °F 88% 30.29 in 10.0 mi East 12.7 mph - N/A   Overcast
2:53 AM 23.0 °F 10.1 °F 18.0 °F 81% 30.25 in 10.0 mi East 15.0 mph - N/A   Overcast
3:03 AM 21.2 °F 7.3 °F 17.6 °F 86% 30.21 in 10.0 mi East 16.1 mph - N/A   Overcast
3:42 AM 21.2 °F 7.8 °F 15.8 °F 80% 30.18 in 10.0 mi East 15.0 mph - N/A   Mostly Cloudy
3:53 AM 21.9 °F 9.2 °F 16.0 °F 78% 30.21 in 10.0 mi East 13.8 mph - N/A   Mostly Cloudy
4:53 AM 21.9 °F 8.7 °F 16.0 °F 78% 30.17 in 10.0 mi East 15.0 mph - N/A   Overcast
5:53 AM 21.9 °F 9.8 °F 15.1 °F 75% 30.17 in 10.0 mi East 12.7 mph - N/A   Overcast
6:53 AM 21.9 °F 9.2 °F 15.1 °F 75% 30.15 in 10.0 mi East 13.8 mph - N/A   Overcast
6:58 AM 21.2 °F 8.3 °F 15.8 °F 80% 30.11 in 1.5 mi East 13.8 mph - 0.00 in Snow Light Snow
7:18 AM 21.2 °F 7.3 °F 15.8 °F 80% 30.08 in 0.5 mi East 16.1 mph - 0.00 in Snow Snow
7:28 AM 21.2 °F 8.3 °F 17.6 °F 86% 30.09 in 0.2 mi ENE 13.8 mph - 0.01 in Fog , Snow Heavy Snow
7:53 AM 21.0 °F 9.3 °F 17.1 °F 85% 30.12 in 0.2 mi ENE 11.5 mph - 0.02 in Fog , Snow Snow
8:23 AM 21.2 °F 8.9 °F 17.6 °F 86% 30.05 in 0.2 mi ENE 12.7 mph - 0.03 in Fog , Snow Heavy Snow
8:34 AM 21.2 °F 7.8 °F 17.6 °F 86% 30.04 in 0.2 mi ENE 15.0 mph - 0.03 in Fog , Snow Snow
8:49 AM 21.2 °F 6.4 °F 17.6 °F 86% 30.02 in 0.5 mi ENE 18.4 mph 25.3 mph 0.03 in Fog , Snow Snow
8:53 AM 21.9 °F 7.3 °F 18.0 °F 85% 30.05 in 0.5 mi ENE 18.4 mph - 0.03 in Fog , Snow Snow
9:41 AM 23.0 °F 9.6 °F 19.4 °F 86% 30.00 in 0.2 mi East 16.1 mph - 0.00 in Fog , Snow Snow
9:53 AM 23.0 °F 10.6 °F 19.9 °F 88% 30.04 in 0.2 mi East 13.8 mph - 0.01 in Fog , Snow Snow
10:38 AM 24.8 °F 12.9 °F 19.4 °F 80% 29.97 in 0.2 mi East 13.8 mph - 0.00 in Fog , Snow Heavy Snow
10:53 AM 24.1 °F 12.0 °F 21.0 °F 88% 30.00 in 0.2 mi East 13.8 mph - 0.01 in Fog , Snow Heavy Snow
11:16 AM 24.8 °F 15.3 °F 19.4 °F 80% 29.96 in 0.2 mi East 9.2 mph - 0.00 in Fog , Snow Snow
11:22 AM 24.8 °F 14.0 °F 19.4 °F 80% 29.95 in 0.8 mi East 11.5 mph - 0.00 in Snow Light Snow
11:30 AM 24.8 °F 13.4 °F 19.4 °F 80% 29.95 in 1.0 mi East 12.7 mph - 0.00 in Snow Light Snow
11:38 AM 24.8 °F 14.0 °F 21.2 °F 86% 29.95 in 3.0 mi East 11.5 mph - 0.00 in Snow Light Snow
11:53 AM 25.0 °F 13.6 °F 21.0 °F 85% 29.98 in 9.0 mi East 12.7 mph - 0.00 in   Overcast
12:03 PM 24.8 °F 13.4 °F 21.2 °F 86% 29.94 in 10.0 mi East 12.7 mph - N/A   Overcast
12:53 PM 26.1 °F 17.6 °F 21.0 °F 81% 29.96 in 10.0 mi East 8.1 mph - N/A   Overcast
1:17 PM 26.6 °F 17.5 °F 21.2 °F 80% 29.92 in 10.0 mi East 9.2 mph - N/A   Overcast
1:53 PM 28.0 °F 21.7 °F 21.9 °F 78% 29.93 in 10.0 mi East 5.8 mph - N/A   Overcast
2:53 PM 28.0 °F 24.2 °F 24.1 °F 85% 29.92 in 2.0 mi East 3.5 mph - N/A   Overcast
3:07 PM 28.4 °F 24.6 °F 24.8 °F 86% 29.89 in 2.0 mi East 3.5 mph - N/A   Haze
3:53 PM 30.0 °F 24.1 °F 25.0 °F 82% 29.91 in 2.0 mi SSE 5.8 mph - N/A   Overcast
4:11 PM 30.2 °F 23.4 °F 24.8 °F 80% 29.87 in 8.0 mi SE 6.9 mph - N/A   Overcast
4:53 PM 30.0 °F 25.2 °F 26.1 °F 85% 29.90 in 5.0 mi SSE 4.6 mph - N/A   Overcast
5:28 PM 28.4 °F 22.2 °F 26.6 °F 93% 29.87 in 2.0 mi SSE 5.8 mph - 0.00 in Snow Light Snow
5:34 PM 28.4 °F 23.3 °F 26.6 °F 93% 29.87 in 1.5 mi SSE 4.6 mph - 0.00 in Snow Light Snow
5:46 PM 28.4 °F 24.6 °F 26.6 °F 93% 29.87 in 1.2 mi SSE 3.5 mph - 0.00 in Snow Light Snow
5:53 PM 28.9 °F 25.2 °F 26.1 °F 89% 29.90 in 1.2 mi South 3.5 mph - 0.00 in Snow Light Snow
6:13 PM 28.4 °F 24.6 °F 26.6 °F 93% 29.87 in 1.8 mi SSE 3.5 mph - 0.00 in Snow Light Snow
6:23 PM 28.4 °F 24.6 °F 26.6 °F 93% 29.87 in 1.8 mi South 3.5 mph - 0.00 in Snow Light Snow
6:53 PM 28.9 °F 25.2 °F 27.0 °F 92% 29.90 in 1.8 mi SSE 3.5 mph - 0.00 in Snow Light Snow
7:21 PM 28.4 °F - 26.6 °F 93% 29.87 in 1.8 mi Calm Calm - 0.00 in   Overcast
7:50 PM 28.4 °F 23.3 °F 26.6 °F 93% 29.88 in 1.8 mi SSE 4.6 mph - 0.00 in   Overcast
7:53 PM 28.9 °F 25.2 °F 27.0 °F 92% 29.91 in 1.8 mi SSE 3.5 mph - 0.00 in   Overcast
8:15 PM 30.2 °F 25.4 °F 26.6 °F 86% 29.87 in 1.8 mi SSE 4.6 mph - 0.00 in Snow Light Snow
8:53 PM 30.0 °F 24.1 °F 28.0 °F 92% 29.89 in 1.8 mi South 5.8 mph - 0.01 in Snow Light Snow
9:53 PM 30.0 °F 25.2 °F 28.0 °F 92% 29.88 in 1.8 mi South 4.6 mph - 0.00 in Snow Light Snow
10:53 PM 30.9 °F 23.5 °F 28.9 °F 92% 29.87 in 1.8 mi South 8.1 mph - 0.00 in   Overcast
11:07 PM 30.2 °F 23.4 °F 28.4 °F 93% 29.84 in 1.8 mi South 6.9 mph - N/A   Overcast
11:53 PM 33.1 °F 24.9 °F 28.9 °F 85% 29.86 in 1.8 mi SSW 10.4 mph - N/A   Overcast